Location: Newark
(33.9439°N, 86.0617°W)
Time: 20:17:53
(UTC+00:00)

LightSail 2 - Visible Passes

Search period start: 26 January 2020 00:00
Search period end: 05 February 2020 00:00
Orbit: 704 x 719 km, 24.0° (Epoch: 26 January)

Date Brightness Start Highest point End Pass type
(mag) Time Alt. Az. Time Alt. Az. Time Alt. Az.
26 Jan 7.5 01:39:06 10° SW 01:41:55 15° SSW 01:41:55 15° SSW visible
27 Jan 7.3 00:40:13 10° WSW 00:43:40 18° SSW 00:47:08 10° SSE visible
27 Jan 7.3 23:41:32 10° WSW 23:45:21 21° SSW 23:49:11 10° SE visible
29 Jan 7.7 00:29:31 10° SW 00:31:52 13° SSW 00:34:12 10° S visible
